Regional Weather Roundup
Issued by NWS

Home | Current Version | Previous Version | Graphics & Text | Print | Product List | Glossary On
Versions: 1 2 3 4 5 6 7 8 9 10 11 12 13 14 15 16 17 18 19 20 21 22 23 24 25 26 27 28 29 30 31 32 33 34 35 36 37 38 39 40 41 42 43 44 45 46 47 48 49 50
000
ASUS45 KABQ 030310
RWRNM
WEATHER ROUNDUP FOR NEW MEXICO
NATIONAL WEATHER SERVICE ALBUQUERQUE NM
800 PM MST MON MAR 02 2015

NOTE: "FAIR" MEANS FEW OR NO CLOUDS BELOW 12,000 FEET AGL WITH NO
       SIGNIFICANT WEATHER OR OBSTRUCTIONS TO VISION.

      THIS PRODUCT IS RELEASED AS TWO VERSIONS.  ONE VERSION NEAR
      THE TOP OF THE HOUR CONTAINING PRELIMINARY DATA FROM ALBUQUERQUE
      AND OTHER STATIONS.  A FINAL VERSION WITH ADDITIONAL DATA IS
      ISSUED ABOUT 10 MINUTES AFTER THE HOUR.

NMZ501-503-504-510>518-030400-
NORTHWEST PLATEAU/NORTHCENTRAL MOUNTAINS

CITY           SKY/WX    TMP DP  RH WIND       PRES   REMARKS
FARMINGTON     CLOUDY    37  33  85 W5        29.92R WCI  33
LOS ALAMOS     CLOUDY    44  38  79 S22G36    29.86R
SANTA FE       CLOUDY    50  35  56 S14G24    29.87R
TAOS           CLOUDY    43  30  61 SW20      29.82R
ANGEL FIRE     MOCLDY    42  30  62 S26G36    29.82F

$$
NMZ402-403-502-505>509-030400-
WESTCENTRAL MOUNTAINS/SOUTHWEST MOUNTAINS

CITY           SKY/WX    TMP DP  RH WIND       PRES   REMARKS
GALLUP         LGT SNOW  33  30  88 SW17      29.99R FOG     WCI  22
GRANTS         CLOUDY    35  32  88 N9G18     29.98R WCI  28
SILVER CITY    CLOUDY    52  39  62 SW24G36   30.00S

$$
NMZ407-409-411-412-030400-
SOUTHERN DESERTS

CITY           SKY/WX    TMP DP  RH WIND       PRES   REMARKS
LORDSBURG      FAIR      55  43  62 SW10G20   29.98R
DEMING         CLOUDY    56  47  71 SW7       29.99R
LAS CRUCES     CLOUDY    59  45  59 SW21G29   29.99R
ALAMOGORDO     MOCLDY    55  48  76 S16       29.98S
T OR C         CLOUDY    58  38  47 SW28G38   29.91R

$$
NMZ519>523-030400-
CENTRAL VALLEYS/CENTRAL HIGHLANDS

CITY           SKY/WX    TMP DP  RH WIND       PRES   REMARKS
ALBUQUERQUE    CLOUDY    52  41  66 S20       29.89R
DOUBLE EAGLE   CLOUDY    48  39  71 S17G23    29.89R
MORIARTY ARPT  FAIR      47  38  70 S18G24    29.92S
CLINES CORNERS CLOUDY    44  37  76 SW28G33   29.89S
BELEN          CLOUDY    51  44  76 S22       29.90R
SOCORRO          N/A     54  45  71 S18G26    29.90R

$$
NMZ524>526-539-540-030400-
SOUTHCENTRAL MOUNTAINS

CITY           SKY/WX    TMP DP  RH WIND       PRES   REMARKS
RUIDOSO        MOCLDY    46  41  81 SW24G39   29.98R

$$
NMZ527>531-030400-
NORTHEAST HIGHLANDS/NORTHEAST PLAINS

CITY           SKY/WX    TMP DP  RH WIND       PRES   REMARKS
LAS VEGAS      FOG       29  29 100 S16       29.88F VSB 1/4 WCI  17
RATON          CLOUDY    31  30  96 SW6       29.80F WCI  25
CLAYTON        CLOUDY    32  30  92 SW21G36   29.81S WCI  20

$$
NMZ532>537-030400-
EASTCENTRAL PLAINS

CITY           SKY/WX    TMP DP  RH WIND       PRES   REMARKS
TUCUMCARI      CLOUDY    37  34  89 SW7       29.91F WCI  32
CANNON AFB     CLOUDY    35  34  96 S8        29.98R WCI  29
CLOVIS AIRPORT CLOUDY    34  32  93 S13       29.97F WCI  25

$$
NMZ028-029-538-030400-
SOUTHEAST PLAINS

CITY           SKY/WX    TMP DP  RH WIND       PRES   REMARKS
ROSWELL        CLOUDY    38  33  82 S16       29.99S WCI  29
ARTESIA        MOCLDY    37  37 100 SE18      30.02S WCI  27
CARLSBAD       CLOUDY    39  34  82 SE12      30.03F WCI  32
HOBBS          CLOUDY    36  36 100 S10       30.05F WCI  28


$$


USA.gov is the U.S. government's official web portal to all federal, state and local government web resources and services.